FFT202 KSAN-KLAS

Flight info

Callsign FFT202
Flight time N/A
Altitude 29000
Route PADRZ2 CHKNN SEBBY YELAH MISEN RNDRZ4
Aircraft A320/M-SDE3FGHIRWY/LB1

Departure

Time 2026-04-26 04:06
Airport San Diego International Airport (KSAN)

Arrival

Time N/A
Airport Harry Reid International Airport (KLAS)
Time Latitude Longitude Altitude Speed Heading
2026-04-26 03:48 32.73382 -117.19860 23 ft 0 kts 179°
2026-04-26 03:58 32.73383 -117.19860 23 ft 1 kts 180°
2026-04-26 03:58 32.73408 -117.19860 23 ft 3 kts 181°
2026-04-26 03:59 32.73435 -117.19859 23 ft 3 kts 178°
2026-04-26 03:59 32.73461 -117.19864 25 ft 3 kts 150°
2026-04-26 03:59 32.73471 -117.19875 25 ft 0 kts 104°
2026-04-26 04:01 32.73469 -117.19863 23 ft 7 kts 104°
2026-04-26 04:01 32.73450 -117.19781 23 ft 12 kts 105°
2026-04-26 04:02 32.73421 -117.19659 23 ft 21 kts 106°
2026-04-26 04:02 32.73378 -117.19484 23 ft 23 kts 106°
2026-04-26 04:02 32.73333 -117.19297 22 ft 21 kts 106°
2026-04-26 04:02 32.73292 -117.19130 23 ft 22 kts 106°
2026-04-26 04:03 32.73250 -117.18952 23 ft 23 kts 106°
2026-04-26 04:03 32.73205 -117.18764 23 ft 24 kts 105°
2026-04-26 04:03 32.73158 -117.18568 22 ft 26 kts 106°
2026-04-26 04:03 32.73106 -117.18357 22 ft 27 kts 106°
2026-04-26 04:04 32.73053 -117.18142 22 ft 28 kts 106°
2026-04-26 04:04 32.73006 -117.17944 22 ft 20 kts 106°
2026-04-26 04:04 32.72967 -117.17789 22 ft 18 kts 106°
2026-04-26 04:04 32.72959 -117.17646 24 ft 17 kts 73°
2026-04-26 04:05 32.73022 -117.17590 24 ft 13 kts 311°
2026-04-26 04:05 32.73087 -117.17852 24 ft 68 kts 286°
2026-04-26 04:05 32.73282 -117.18661 23 ft 132 kts 286°
2026-04-26 04:05 32.73582 -117.19870 242 ft 161 kts 287°
2026-04-26 04:06 32.73928 -117.21167 810 ft 173 kts 295°
2026-04-26 04:06 32.74541 -117.22452 1378 ft 186 kts 303°
2026-04-26 04:06 32.75294 -117.23776 1950 ft 201 kts 304°
2026-04-26 04:06 32.76122 -117.25193 2496 ft 218 kts 304°
2026-04-26 04:07 32.77008 -117.26716 3063 ft 229 kts 302°
2026-04-26 04:07 32.77920 -117.28297 3625 ft 234 kts 302°
2026-04-26 04:07 32.78839 -117.29905 4176 ft 239 kts 301°
2026-04-26 04:07 32.79801 -117.31610 4743 ft 257 kts 302°
2026-04-26 04:08 32.80859 -117.33361 5297 ft 264 kts 304°
2026-04-26 04:08 32.81981 -117.35101 5853 ft 267 kts 305°
2026-04-26 04:08 32.83119 -117.36830 6400 ft 270 kts 305°
2026-04-26 04:08 32.84281 -117.38594 6953 ft 272 kts 305°
2026-04-26 04:09 32.85452 -117.40380 7502 ft 275 kts 305°
2026-04-26 04:09 32.86630 -117.42188 8066 ft 278 kts 305°
2026-04-26 04:09 32.87814 -117.44015 8616 ft 280 kts 305°
2026-04-26 04:09 32.89008 -117.45863 9166 ft 283 kts 304°
2026-04-26 04:10 32.90208 -117.47731 9722 ft 285 kts 304°
2026-04-26 04:10 32.91413 -117.49606 10274 ft 286 kts 303°
2026-04-26 04:10 32.92625 -117.51487 10827 ft 286 kts 302°
2026-04-26 04:10 32.93838 -117.53372 11380 ft 287 kts 301°
2026-04-26 04:11 32.95052 -117.55260 11933 ft 287 kts 301°
2026-04-26 04:11 32.96261 -117.57148 12487 ft 288 kts 300°
2026-04-26 04:11 32.97477 -117.59049 13039 ft 289 kts 300°
2026-04-26 04:11 32.98684 -117.60936 13589 ft 291 kts 300°
2026-04-26 04:12 32.99916 -117.62858 14131 ft 293 kts 299°
2026-04-26 04:12 33.01155 -117.64793 14691 ft 296 kts 299°
2026-04-26 04:12 33.02407 -117.66750 15189 ft 297 kts 298°
2026-04-26 04:12 33.03663 -117.68716 15716 ft 299 kts 298°
2026-04-26 04:13 33.04929 -117.70698 16236 ft 302 kts 298°
2026-04-26 04:13 33.06253 -117.72665 16770 ft 309 kts 303°
2026-04-26 04:13 33.07841 -117.74458 17301 ft 318 kts 310°
2026-04-26 04:13 33.09534 -117.76169 17827 ft 321 kts 310°
2026-04-26 04:14 33.11243 -117.77905 18357 ft 324 kts 310°
2026-04-26 04:14 33.12963 -117.79657 18885 ft 326 kts 309°
2026-04-26 04:14 33.14669 -117.81399 19405 ft 329 kts 309°
2026-04-26 04:14 33.16415 -117.83180 19932 ft 331 kts 309°
2026-04-26 04:15 33.18177 -117.84971 20460 ft 334 kts 309°
2026-04-26 04:15 33.19953 -117.86775 20986 ft 337 kts 309°
2026-04-26 04:15 33.21760 -117.88571 21515 ft 340 kts 309°
2026-04-26 04:15 33.23596 -117.90361 22042 ft 342 kts 310°
2026-04-26 04:16 33.25457 -117.92163 22571 ft 345 kts 310°
2026-04-26 04:16 33.27329 -117.93974 23098 ft 348 kts 309°
2026-04-26 04:16 33.29190 -117.95775 23617 ft 351 kts 309°
2026-04-26 04:16 33.31091 -117.97621 24145 ft 353 kts 309°
2026-04-26 04:17 33.33026 -117.99506 24679 ft 355 kts 309°
2026-04-26 04:17 33.34922 -118.01362 25201 ft 357 kts 309°
2026-04-26 04:17 33.36828 -118.03230 25722 ft 359 kts 309°
2026-04-26 04:17 33.38758 -118.05120 26248 ft 360 kts 309°
2026-04-26 04:18 33.40700 -118.07022 26774 ft 361 kts 309°
2026-04-26 04:18 33.42644 -118.08925 27301 ft 361 kts 309°
2026-04-26 04:18 33.44585 -118.10823 27823 ft 361 kts 309°
2026-04-26 04:18 33.45879 -118.12092 28081 ft 364 kts 309°
2026-04-26 04:19 33.48515 -118.14688 28585 ft 370 kts 309°
2026-04-26 04:19 33.49842 -118.15997 28830 ft 373 kts 309°
2026-04-26 04:19 33.51868 -118.18002 28963 ft 385 kts 309°
2026-04-26 04:19 33.54659 -118.20771 28982 ft 402 kts 310°
2026-04-26 04:20 33.56900 -118.22892 28984 ft 420 kts 315°
2026-04-26 04:20 33.59484 -118.24710 28992 ft 443 kts 325°
2026-04-26 04:20 33.62331 -118.26266 28991 ft 455 kts 326°
2026-04-26 04:21 33.67236 -118.28840 28984 ft 477 kts 333°
2026-04-26 04:21 33.70564 -118.29634 28975 ft 503 kts 349°
2026-04-26 04:21 33.74124 -118.29351 28976 ft 524 kts
2026-04-26 04:21 33.77597 -118.27869 28976 ft 538 kts 25°
2026-04-26 04:22 33.80641 -118.25213 28986 ft 546 kts 44°
2026-04-26 04:22 33.85255 -118.17951 28977 ft 548 kts 55°
2026-04-26 04:23 33.89473 -118.10780 28985 ft 547 kts 55°
2026-04-26 04:23 33.93836 -118.03363 28979 ft 547 kts 55°
2026-04-26 04:24 33.98248 -117.95919 28984 ft 546 kts 54°
2026-04-26 04:24 34.02660 -117.88451 28982 ft 547 kts 55°
2026-04-26 04:25 34.07028 -117.81005 28981 ft 546 kts 55°
2026-04-26 04:25 34.11527 -117.73604 28982 ft 546 kts 52°
2026-04-26 04:26 34.16381 -117.66552 28984 ft 547 kts 49°
2026-04-26 04:26 34.21323 -117.59650 28984 ft 546 kts 49°
2026-04-26 04:27 34.26207 -117.52620 28976 ft 546 kts 50°
2026-04-26 04:27 34.31006 -117.45494 28978 ft 546 kts 51°
2026-04-26 04:28 34.35800 -117.38368 28975 ft 546 kts 51°
2026-04-26 04:28 34.40585 -117.31303 28980 ft 546 kts 51°
2026-04-26 04:29 34.45395 -117.24203 28965 ft 545 kts 51°
2026-04-26 04:29 34.50203 -117.17077 28950 ft 545 kts 51°
2026-04-26 04:30 34.54993 -117.09961 28947 ft 545 kts 51°
2026-04-26 04:30 34.59791 -117.02836 28940 ft 545 kts 51°
2026-04-26 04:31 34.64588 -116.95687 28926 ft 545 kts 51°
2026-04-26 04:31 34.69368 -116.88546 28912 ft 545 kts 51°
2026-04-26 04:32 34.74120 -116.81435 28901 ft 545 kts 51°
2026-04-26 04:32 34.78896 -116.74292 28880 ft 545 kts 51°
2026-04-26 04:33 34.83672 -116.67128 28873 ft 545 kts 51°
2026-04-26 04:33 34.89175 -116.60825 28873 ft 544 kts 37°